CAPE
478 232 105 124 300 728 697 1160 1400 1503 1387 1364 1421 1232 949 1046 1570 1750 1315 1493 1358 739 64 424 1438 1523 1628 1625 1617 1635 1250 1281 1132
463 543 347 26 421 690 453 969 843 1514 1638 1518 1742 1577 1438 1000 1130 1555 2204 1827 1605 1134 726 641 601 1047 521 118 1167 1600 1520 1406 1512
1517 1179 941 526 401 559 528 767 752 869 392 672 1963 1882 1863 1629 1141 1281 1378 1803 2110 1930 1891 1709 1212 56 0 0 5 1010 1571 1669 1504
1625 1328 910 388 551 617 656 717 688 498 91 0 297 2189 2270 2251 2095 1946 1763 1594 1653 2063 2487 1861 423 0 5 0 0 9 1077 1532 1501
1453 1182 1100 746 668 576 174 80 229 521 14 0 17 2103 2631 2719 2530 2376 2459 2255 2112 1977 2055 1980 529 42 50 0 0 2 643 1106 1617
1224 1363 505 376 283 135 0 21 66 263 0 0 49 2010 2781 2768 2744 2711 2733 2775 2636 2418 2239 1200 850 21 20 0 0 190 359 369 1010
1086 1229 1121 348 72 33 0 30 4 211 122 0 113 1285 2392 2268 2551 2623 2597 2605 2712 2172 1566 544 471 22 2 68 0 183 299 370 782
1380 2164 2310 2235 1836 1055 557 802 910 883 804 223 1746 1824 2027 2112 2256 2537 2564 2401 2200 1957 980 133 46 159 0 0 0 17 72 172 416
944 1508 2000 2022 1958 1747 1539 1628 1935 2433 1935 1637 1606 1900 2212 2866 2383 2069 2068 2001 1479 939 1018 586 100 4 0 0 18 312 261 142 121
748 680 729 1231 1617 1355 1444 1724 2176 1848 1556 1866 2401 2779 3252 3242 3216 2396 2025 1843 2095 1716 1459 1183 971 791 617 369 293 402 260 4 0
840 845 1054 1126 663 419 561 1154 1819 1560 1972 1819 1982 2025 3170 3142 3001 3105 2058 1687 1607 2125 1289 777 564 434 492 278 83 9 3 0 0
575 945 1098 910 487 212 199 433 985 1173 1328 1535 1764 1874 1955 2191 2414 2444 1872 1571 1190 668 927 646 256 51 2 79 0 0 0 0 0
86 87 359 398 233 58 33 27 93 193 483 399 393 491 474 550 720 1126 1409 1724 1716 1392 1141 892 604 217 0 0 0 0 0 0 0
85 16 33 44 1 7 0 0 0 0 37 222 227 256 307 199 272 309 526 555 1061 1389 1770 1605 1043 638 53 0 0 0 0 0 0
68 12 0 0 0 0 0 0 0 0 0 0 0 0 0 0 35 199 441 292 238 199 424 986 1702 1591 1230 649 276 122 0 0 0
9 0 0 0 0 0 0 0 0 0 0 0 0 0 0 0 0 2 26 90 95 116 135 140 441 1158 1594 1779 1703 1626 1616 868 605
0 0 0 0 0 0 0 0 0 0 0 0 0 0 0 0 0 0 0 0 0 0 0 0 0 3 248 770 1278 1175 1035 872 546
0 0 0 0 0 0 0 0 0 0 0 0 0 0 0 0 0 0 0 0 0 0 0 0 0 0 0 9 155 500 848 565 463
0 0 0 0 0 0 0 0 0 0 0 0 0 0 0 0 0 0 0 0 0 0 0 0 0 0 0 0 0 5 70 192 0
0 0 0 0 0 0 0 0 0 0 0 0 0 0 0 0 0 0 0 0 0 0 0 0 0 0 0 0 0 0 0 0 0
CIN
-346 -594 -675 -768 -634 -322 -341 -384 -389 -360 -397 -387 -360 -333 -353 -310 -244 -180 -204 -165 -188 -273 -496 -263 -140 -146 -130 -128 -132 -110 -137 -103 -93
-324 -488 -632 -935 -440 -224 -559 -406 -379 -204 -293 -349 -338 -336 -313 -354 -318 -236 -141 -169 -155 -204 -254 -308 -254 -186 -212 -282 -150 -121 -112 -103 -84
-200 -272 -293 -381 -526 -572 -691 -649 -700 -489 -456 -89 -193 -311 -301 -281 -342 -300 -232 -163 -117 -126 -117 -122 -167 -293 0 0 -5 -42 -130 -87 -101
-202 -299 -435 -529 -579 -536 -575 -670 -667 -531 -646 0 -556 -107 -222 -212 -197 -184 -212 -178 -132 -103 -73 -127 -279 0 -345 0 0 -88 -83 -74 -88
-241 -387 -435 -533 -560 -524 -854 -936 -713 -451 -538 -46 -872 -166 -110 -162 -162 -157 -148 -148 -136 -131 -86 -115 -346 -570 -332 0 0 -18 -91 -50 -25
-220 -351 -653 -688 -769 -752 0 -936 -842 -476 0 0 -178 -217 -103 -146 -122 -144 -155 -125 -115 -101 -86 -256 -288 -635 -459 0 -29 -328 -172 -190 -169
-228 -283 -412 -679 -827 -958 -107 -1015 -591 -751 -808 0 -724 -381 -166 -180 -129 -163 -176 -155 -100 -141 -179 -413 -442 -463 -160 -488 0 -430 -264 -334 -260
-216 -183 -163 -186 -255 -417 -591 -465 -482 -512 -500 -633 -263 -253 -172 -115 -151 -178 -176 -159 -147 -171 -340 -572 -669 -589 0 0 0 -533 -444 -411 -354
-251 -182 -159 -153 -172 -188 -197 -191 -169 -128 -157 -168 -176 -139 -107 -98 -129 -166 -165 -178 -232 -324 -322 -426 -615 -505 0 0 -658 -414 -434 -564 -570
-292 -286 -303 -205 -165 -214 -234 -189 -142 -134 -185 -170 -89 -70 -71 -71 -56 -98 -161 -202 -161 -188 -231 -278 -299 -338 -418 -496 -517 -467 -530 -277 0
-305 -374 -358 -385 -459 -535 -505 -340 -185 -200 -170 -166 -136 -117 -57 -52 -66 -71 -189 -225 -207 -137 -278 -391 -448 -505 -484 -585 -710 -326 -126 0 0
-487 -457 -431 -437 -557 -649 -615 -476 -332 -296 -263 -258 -218 -190 -171 -139 -108 -95 -155 -195 -244 -337 -283 -372 -494 -499 -69 -653 0 0 0 0 0
-694 -722 -585 -557 -604 -726 -678 -738 -598 -479 -359 -373 -373 -325 -340 -350 -324 -215 -162 -142 -145 -187 -224 -254 -345 -484 0 0 0 0 0 0 0
-689 -502 -714 -751 -569 -497 0 0 0 0 -353 -319 -341 -335 -319 -349 -342 -341 -276 -280 -181 -135 -93 -125 -222 -304 -216 0 0 0 0 0 0
-620 -443 0 0 0 0 0 0 0 0 0 0 0 0 0 0 -375 -306 -228 -271 -305 -304 -250 -150 -65 -93 -174 -308 -214 -260 0 0 0
-808 0 0 0 0 0 0 0 0 0 0 0 0 0 0 0 0 -41 -365 -303 -304 -287 -259 -229 -162 -58 -24 -41 -74 -117 -134 -269 -327
0 0 0 0 0 0 0 -301 0 0 0 0 0 0 0 0 0 0 0 0 0 0 0 0 0 -65 -174 -81 -46 -91 -162 -184 -253
0 0 0 0 0 0 0 0 0 0 0 0 0 0 0 0 0 0 0 0 0 0 0 0 0 0 0 -121 -188 -120 -68 -125 -169
0 0 0 0 0 0 0 0 0 0 0 0 0 0 0 0 0 0 0 0 0 0 0 0 0 0 0 0 0 -72 -40 -116 0
0 0 0 -193 0 0 0 0 0 0 0 0 0 0 0 0 0 0 0 0 0 0 0 0 0 0 0 0 0 0 0 0 0
Wind_Speed
10 12 11 16 20 20 17 17 16 15 14 14 15 14 14 14 11 8 7 7 6 6 6 6 5 7 7 9 7 9 7 4 6
7 12 15 20 23 4 12 12 12 9 10 16 14 16 13 12 12 11 8 7 6 5 6 5 6 6 5 5 6 8 8 6 8
7 7 10 19 10 12 13 13 13 9 16 10 12 15 12 10 9 8 9 6 7 7 6 5 1 14 15 15 18 14 9 6 5
8 3 5 11 12 8 6 9 10 10 4 7 17 11 9 10 9 10 10 10 11 10 5 3 11 8 12 17 18 16 7 6 6
8 7 6 10 9 7 8 10 10 14 8 20 19 11 11 12 10 11 10 10 9 7 6 4 11 7 7 9 11 13 9 7 8
9 11 6 6 6 4 8 7 10 11 15 7 7 12 12 10 10 10 11 10 8 6 6 5 7 9 8 10 16 15 8 5 14
9 8 12 6 6 6 7 7 9 11 12 11 12 13 11 7 8 10 9 8 7 7 6 6 7 8 9 13 12 6 7 9 9
9 14 15 13 12 11 11 12 16 15 13 13 10 5 7 8 7 7 7 7 7 6 6 7 6 8 7 7 6 7 4 6 6
9 8 8 8 8 10 13 13 9 7 7 4 2 4 3 1 3 4 6 6 6 5 6 6 6 8 7 7 6 10 12 7 6
9 8 7 7 8 5 4 5 8 8 8 4 5 4 3 4 2 4 5 5 4 4 6 5 7 6 6 8 6 9 10 11 5
9 8 7 7 8 7 6 3 3 4 5 5 4 3 3 3 3 2 3 3 2 1 1 3 4 6 6 6 7 10 12 9 5
7 7 7 7 6 6 8 10 7 8 7 8 9 8 7 6 4 1 2 4 4 4 5 4 6 5 7 7 9 12 12 4 4
8 8 6 7 7 6 8 6 8 9 7 6 6 5 5 5 6 6 6 7 5 4 4 6 4 6 7 8 10 10 12 7 4
7 8 9 7 8 7 6 6 7 7 5 5 2 3 4 5 6 6 4 4 3 5 6 5 6 6 6 9 9 11 14 14 9
9 9 8 7 7 6 5 7 7 6 5 4 3 3 3 3 4 3 3 5 4 6 5 5 6 7 8 7 10 15 15 18 16
6 7 6 5 7 6 5 6 6 6 4 4 5 6 7 6 5 4 4 4 6 5 5 5 7 6 8 8 7 7 14 15 17
6 6 6 5 7 5 2 1 1 2 3 3 2 4 5 5 5 6 6 4 4 4 5 5 6 7 8 8 8 7 6 7 6
7 6 4 5 5 5 5 4 4 5 5 4 5 6 6 6 5 6 6 6 5 5 6 7 8 7 7 8 9 9 9 9 5
7 7 4 3 2 2 4 4 5 6 6 5 6 6 6 6 6 6 6 6 8 11 14 15 14 15 12 10 13 15 13 14 14
3 4 5 3 2 1 3 5 5 5 4 4 5 6 7 7 8 7 7 7 8 10 10 16 16 18 18 14 17 16 15 14 14
Wind_Direction
165 183 213 235 224 208 201 187 186 182 192 192 189 197 208 209 211 213 218 202 203 211 200 218 223 207 216 228 220 220 213 203 216
144 199 216 224 221 105 84 69 44 323 229 198 195 202 206 219 214 210 213 211 212 221 219 217 210 221 243 305 250 223 213 210 216
144 191 229 229 120 133 120 110 89 31 7 330 267 198 207 208 221 220 216 215 218 219 227 236 347 59 36 3 324 282 212 216 224
119 144 89 125 137 148 130 145 111 48 21 298 286 248 212 210 211 215 210 220 233 233 230 154 109 116 75 344 306 309 270 236 228
117 134 136 138 145 164 92 83 120 157 165 235 245 261 225 213 210 215 214 219 223 222 232 183 159 149 135 181 278 284 286 281 246
119 130 111 111 101 122 97 144 145 204 213 215 234 244 218 216 214 211 211 211 215 202 227 165 170 163 175 186 216 212 202 261 263
107 128 141 139 130 160 151 182 196 237 242 251 246 235 222 200 212 214 210 197 207 187 177 169 168 182 193 202 230 287 229 216 240
123 124 140 148 154 174 191 199 209 217 238 251 234 171 178 208 211 204 192 185 184 194 163 181 205 196 216 244 245 247 210 237 235
113 137 137 147 153 152 162 162 164 163 180 197 102 100 101 80 178 204 208 202 196 174 196 188 206 233 218 220 238 251 250 249 253
141 136 138 147 158 140 134 137 147 157 171 176 140 126 122 154 163 205 208 219 210 198 174 178 219 239 249 248 250 250 266 262 266
134 130 118 93 93 82 41 40 95 104 105 95 75 60 144 113 79 153 181 113 131 236 185 204 223 242 249 264 264 256 261 270 269
114 111 115 120 124 110 78 56 54 66 55 60 59 44 32 11 347 149 194 226 222 200 213 210 224 221 231 235 258 259 266 250 257
98 92 104 103 93 87 74 73 72 61 56 50 52 39 28 24 24 18 359 316 285 241 227 226 212 237 228 241 253 258 257 229 234
116 115 103 101 85 92 100 81 80 75 62 61 8 22 29 9 1 355 335 331 343 332 313 275 253 235 229 231 227 249 246 240 248
132 126 115 111 97 82 61 70 80 64 39 332 356 7 357 318 299 301 318 321 311 317 313 299 279 261 260 240 241 233 244 244 231
141 124 108 98 103 89 58 60 67 44 331 349 351 351 334 327 317 292 275 277 284 289 279 272 282 273 272 269 250 244 236 236 240
99 102 99 100 94 87 69 89 104 204 271 295 318 300 292 294 299 297 300 285 265 264 268 260 261 268 266 266 267 262 256 260 249
134 139 155 153 160 180 226 235 261 272 269 243 244 249 259 267 265 269 275 264 257 263 260 239 272 259 253 264 269 261 250 253 240
170 185 187 165 193 217 269 296 284 283 280 266 262 262 254 244 245 248 246 250 271 251 249 265 265 255 243 271 261 272 244 244 244
128 124 122 104 91 335 328 336 331 330 331 337 308 278 285 277 270 262 256 254 256 270 264 249 255 263 264 238 248 259 264 263 275